Rainier, OR

8:36 AM PST on December 05, 2016 (GMT -0800)
Rainier Oregon | | Change Station
Active Advisory: Winter Weather Advisory

Elev 70 ft 46.10 °N, 122.98 °W | Updated 6 seconds ago

Rain
Rain
35.6 °F
Feels Like 31 °F
N
5.6
Wind Variable Wind from SE
Gusts 11.0 mph

Today
High -- | Low -- °F
--% Chance of Precip.
Yesterday
High -- | Low -- °F
Precip. -- in
Pressure 30.14 in
Visibility 10.0 miles
Clouds Overcast 1000 ft
Windchill 31 °F
Dew Point 35 °F
Humidity 93%
Rainfall 0.18 in
Snow Depth Not available.
7:38 AM 4:26 PM
Waxing Crescent, 33% visible
METAR KKLS 051556Z AUTO 14011G16KT 10SM UP OVC010 03/02 A3012 RMK AO2 RAE50UPB55 SLP204 P0003 T00280017
Pressure 30.14 in
Visibility 10.0 miles
Clouds Overcast 1000 ft
Windchill 31 °F
Dew Point 35 °F
Humidity 93%
Rainfall 0.18 in
Snow Depth Not available.
7:38 AM 4:26 PM
Waxing Crescent, 33% visible
METAR KKLS 051556Z AUTO 14011G16KT 10SM UP OVC010 03/02 A3012 RMK AO2 RAE50UPB55 SLP204 P0003 T00280017

10-Day Weather Forecast

Almanac

Astronomy

Dec. 05, 2016 Rise Set
Actual Time
Civil Twilight
Nautical Twilight
Astronomical Twilight
Moon
Length of Visible Light
Length of Day
Tomorrow will be .
, % of the Moon is Illuminated

Today's Extremes

State Highs State Lows

Community

WunderPhotos

Upload Photos

1,955,819 photos uploaded!

WunderBlog® & News

Nearby

Air Quality

  Air Quality AQ Index Pollutant
Not available.

Snow Depth

Station Depth Elevation

Earthquake Activity

City Distance Mag. Time & Date
Minimum magnitude displayed is 2.5.

Coastal Water Temperatures

Place Temperature

Stations

Nearby Weather Stations

Station Location Temp. Windchill Dew Point Humidity Wind Precip. Elev Updated Type
                   

Watches & Warnings

Winter Weather Advisory
Issued: 7:30 AM PST Dec. 5, 2016 – National Weather Service

... Winter Weather Advisory remains in effect for the lower
Columbia and I-5 corridor in Cowlitz County until noon PST
today...

A Winter Weather Advisory for snow remains in effect until noon
PST today.

* Timing... snow showers continuing through the morning.

* Accumulation... 1 to 3 inches above 500 feet... an inch or less
below 500 feet.

* Impacts... the best chance for persistent snow will occur
during the morning commute. There is uncertainty whether snow
will stick to Road surfaces... but even falling snow may
result in travel delays or accidents. If you must drive
during this time... provide extra time for travel and
maintain space between vehicles.

Precautionary/preparedness actions...

A Winter Weather Advisory for snow means that periods of snow
will cause primarily travel difficulties. Be prepared for snow
covered roads and limited visibilities... and use caution while
driving.